User: anonymous   Login
Location: Caltech
(34.1382°N, 118.1253°W)
Time: 00:56:37
(UTC-07:00)
Language:

AO-Echo - Orbit

View from above orbital plane
View from above orbital plane
View from above satellite
View from above satellite

Ground track
Ground track

The orbit data is extracted from the following two-line orbital elements,

1 28375U 04025K   16179.39675009  .00000023  00000-0  20305-4 0  9998
2 28375  98.3284 114.8647 0081310 273.9164  85.2733 14.41785193630692
Epoch (UTC): 27 June 2016 09:31:19
Eccentricity: 0.0081310
inclination: 98.3284°
perigee height: 694 km
apogee height: 810 km
right ascension of ascending node: 114.8647°
argument of perigee: 273.9164°
revolutions per day: 14.41785193
mean anomaly at epoch: 85.2733°
orbit number at epoch: 63069

The dashed part of the orbit path shows where the satellite is in the earth's shadow,  

DLR